Weather History for Farmville, VA

Change the Weather History Date:

Saturday, April 5, 2014

  Actual Average Record
Temperature  
Mean Temperature 60 °F -  
Max Temperature 73 °F 66 °F 90 °F (1942)
Min Temperature 46 °F 41 °F 25 °F (1939)
Degree Days  
Heating Degree Days 4    
Growing Degree Days 10 (Base 50)    
Moisture  
Dew Point 25 °F    
Average Humidity 27    
Maximum Humidity 55    
Minimum Humidity 11    
Precipitation  
Precipitation 0.00 in - - ()
Sea Level Pressure  
Sea Level Pressure 29.92 in    
Wind  
Wind Speed 4 mph (WNW)    
Max Wind Speed 9 mph    
Max Gust Speed 16 mph    
Visibility 10 miles    
Events      
Averages and records for this station are not official NWS values.
T = Trace of Precipitation, MM = Missing Value Source: NWS Daily Summary

Daily Weather History Graph

Daily Weather History Graph

Search for Another Location

Airport:

Trip Planner

Search our weather history database for the weather conditions in past years. The results will help you decide how hot, cold, wet, or windy it might be!

Date:

Astronomy

Apr. 05, 2014 Rise Set
Actual Time 6:53 AM EDT 7:39 PM EDT
Civil Twilight 6:26 AM EDT 8:06 PM EDT
Nautical Twilight 5:55 AM EDT 8:37 PM EDT
Astronomical Twilight 5:23 AM EDT 9:10 PM EDT
Moon 11:03 AM EDT (4/5) 12:44 AM EDT (4/5)
Length of Visible Light 13h 39m
Length of Day
12h 46m
Waxing Crescent, 34% of the Moon is Illuminated
Apr 5
Waxing Crescent
Apr 7
First Quarter
Apr 15
Full
Apr 22
Last Quarter
Apr 29
New

Hourly Weather History & Observations

Time (EDT) Temp. Windchill Dew Point Humidity Pressure Visibility Wind Dir Wind Speed Gust Speed Precip Events Conditions
12:15 AM 69.8 °F - 46.4 °F 43% 29.73 in 10.0 mi WSW 3.5 mph - N/A   Clear
12:35 AM 69.8 °F - 42.8 °F 38% 29.73 in 10.0 mi WSW 8.1 mph - N/A   Clear
12:55 AM 69.8 °F - 41.0 °F 35% 29.74 in 10.0 mi WSW 6.9 mph - N/A   Scattered Clouds
1:15 AM 68.0 °F - 41.0 °F 37% 29.75 in 10.0 mi West 4.6 mph - N/A   Clear
1:35 AM 66.2 °F - 42.8 °F 43% 29.75 in 10.0 mi Calm Calm - N/A   Clear
1:55 AM 64.4 °F - 42.8 °F 45% 29.76 in 10.0 mi Calm Calm - N/A   Clear
2:15 AM 62.6 °F - 42.8 °F 48% 29.76 in 10.0 mi Calm Calm - N/A   Clear
2:35 AM 62.6 °F - 42.8 °F 48% 29.75 in 10.0 mi Calm Calm - N/A   Clear
2:55 AM 62.6 °F - 42.8 °F 48% 29.76 in 10.0 mi Calm Calm - N/A   Clear
3:15 AM 60.8 °F - 42.8 °F 52% 29.76 in 10.0 mi Calm Calm - N/A   Clear
3:35 AM 59.0 °F - 42.8 °F 55% 29.77 in 10.0 mi Calm Calm - N/A   Clear
3:55 AM 59.0 °F - 42.8 °F 55% 29.78 in 10.0 mi Calm Calm - N/A   Clear
4:15 AM 59.0 °F - 42.8 °F 55% 29.79 in 10.0 mi Calm Calm - N/A   Clear
4:35 AM 57.2 °F - 39.2 °F 51% 29.79 in 10.0 mi Calm Calm - N/A   Clear
4:55 AM 59.0 °F - 37.4 °F 45% 29.80 in 10.0 mi West 3.5 mph - N/A   Clear
5:15 AM 60.8 °F - 33.8 °F 36% 29.81 in 10.0 mi West 5.8 mph - N/A   Clear
5:35 AM 60.8 °F - 30.2 °F 31% 29.83 in 10.0 mi WSW 4.6 mph - N/A   Clear
5:55 AM 59.0 °F - 28.4 °F 31% 29.84 in 10.0 mi West 3.5 mph - N/A   Clear
6:15 AM 57.2 °F - 28.4 °F 33% 29.85 in 10.0 mi West 3.5 mph - N/A   Clear
6:35 AM 57.2 °F - 28.4 °F 33% 29.86 in 10.0 mi Calm Calm - N/A   Clear
6:55 AM 55.4 °F - 28.4 °F 36% 29.87 in 10.0 mi WNW 3.5 mph - N/A   Clear
7:15 AM 55.4 °F - 28.4 °F 36% 29.89 in 10.0 mi WNW 6.9 mph - N/A   Clear
7:35 AM 55.4 °F - 28.4 °F 36% 29.91 in 10.0 mi West 4.6 mph - N/A   Clear
7:55 AM 55.4 °F - 28.4 °F 36% 29.91 in 10.0 mi West 4.6 mph - N/A   Clear
8:15 AM 55.4 °F - 26.6 °F 33% 29.91 in 10.0 mi West 5.8 mph - N/A   Clear
8:35 AM 55.4 °F - 26.6 °F 33% 29.92 in 10.0 mi WNW 8.1 mph - N/A   Clear
8:55 AM 59.0 °F - 24.8 °F 27% 29.92 in 10.0 mi WNW 6.9 mph - N/A   Clear
9:15 AM 59.0 °F - 24.8 °F 27% 29.93 in 10.0 mi WNW 8.1 mph - N/A   Clear
9:35 AM 60.8 °F - 23.0 °F 23% 29.94 in 10.0 mi WNW 8.1 mph 16.1 mph N/A   Clear
9:55 AM 60.8 °F - 24.8 °F 25% 29.94 in 10.0 mi NW 4.6 mph - N/A   Clear
10:15 AM 60.8 °F - 21.2 °F 22% 29.95 in 10.0 mi West 8.1 mph - N/A   Clear
10:35 AM 60.8 °F - 21.2 °F 22% 29.95 in 10.0 mi West 8.1 mph 16.1 mph N/A   Clear
10:55 AM 62.6 °F - 24.8 °F 24% 29.95 in 10.0 mi NW 6.9 mph - N/A   Clear
11:15 AM 64.4 °F - 21.2 °F 19% 29.96 in 10.0 mi West 9.2 mph - N/A   Clear
11:35 AM 64.4 °F - 21.2 °F 19% 29.96 in 10.0 mi WSW 8.1 mph - N/A   Clear
11:55 AM 64.4 °F - 21.2 °F 19% 29.95 in 10.0 mi WSW 8.1 mph - N/A   Clear
12:15 PM 66.2 °F - 21.2 °F 18% 29.95 in 10.0 mi NW 6.9 mph - N/A   Clear
12:35 PM 66.2 °F - 19.4 °F 17% 29.96 in 10.0 mi West 6.9 mph - N/A   Clear
12:55 PM 66.2 °F - 19.4 °F 17% 29.96 in 10.0 mi WNW 8.1 mph - N/A   Clear
1:15 PM 66.2 °F - 19.4 °F 17% 29.95 in 10.0 mi WNW 5.8 mph - N/A   Clear
1:35 PM 69.8 °F - 19.4 °F 15% 29.95 in 10.0 mi WNW 8.1 mph - N/A   Clear
1:55 PM 69.8 °F - 17.6 °F 14% 29.95 in 10.0 mi WNW 6.9 mph 16.1 mph N/A   Clear
2:15 PM 69.8 °F - 19.4 °F 15% 29.94 in 10.0 mi North 5.8 mph - N/A   Clear
2:35 PM 69.8 °F - 15.8 °F 13% 29.95 in 10.0 mi WNW 3.5 mph - N/A   Clear
2:55 PM 73.4 °F - 19.4 °F 13% 29.94 in 10.0 mi North 6.9 mph - N/A   Clear
3:15 PM 71.6 °F - 15.8 °F 12% 29.95 in 10.0 mi Calm Calm - N/A   Clear
3:35 PM 73.4 °F - 15.8 °F 11% 29.95 in 10.0 mi NW 5.8 mph - N/A   Clear
3:55 PM 73.4 °F - 15.8 °F 11% 29.95 in 10.0 mi Calm Calm - N/A   Clear
4:15 PM 73.4 °F - 15.8 °F 11% 29.94 in 10.0 mi NNW 5.8 mph - N/A   Clear
4:35 PM 73.4 °F - 15.8 °F 11% 29.95 in 10.0 mi WSW 3.5 mph - N/A   Clear
4:55 PM 73.4 °F - 15.8 °F 11% 29.95 in 10.0 mi North 5.8 mph - N/A   Clear
5:15 PM 71.6 °F - 15.8 °F 12% 29.95 in 10.0 mi SW 5.8 mph - N/A   Clear
5:35 PM 71.6 °F - 15.8 °F 12% 29.96 in 10.0 mi North 5.8 mph - N/A   Clear
5:55 PM 71.6 °F - 15.8 °F 12% 29.97 in 10.0 mi Calm Calm - N/A   Clear
6:15 PM 71.6 °F - 15.8 °F 12% 29.97 in 10.0 mi NNW 3.5 mph - N/A   Clear
6:35 PM 69.8 °F - 15.8 °F 13% 29.98 in 10.0 mi WNW 3.5 mph - N/A   Clear
6:55 PM 66.2 °F - 17.6 °F 15% 29.99 in 10.0 mi Calm Calm - N/A   Clear
7:15 PM 62.6 °F - 17.6 °F 18% 29.99 in 10.0 mi Calm Calm - N/A   Clear
7:35 PM 60.8 °F - 10.4 °F 14% 30.00 in 10.0 mi North 4.6 mph - N/A   Clear
7:55 PM 57.2 °F - 10.4 °F 16% 30.01 in 10.0 mi Calm Calm - N/A   Clear
8:15 PM 55.4 °F - 8.6 °F 15% 30.02 in 10.0 mi NE 4.6 mph - N/A   Clear
8:35 PM 55.4 °F - 19.4 °F 25% 30.04 in 10.0 mi North 4.6 mph - N/A   Clear
8:55 PM 55.4 °F - 19.4 °F 25% 30.05 in 10.0 mi North 4.6 mph - N/A   Clear
9:15 PM 53.6 °F - 19.4 °F 26% 30.06 in 10.0 mi Calm Calm - N/A   Clear
9:35 PM 53.6 °F - 19.4 °F 26% 30.08 in 10.0 mi North 3.5 mph - N/A   Clear
9:55 PM 51.8 °F - 19.4 °F 28% 30.08 in 10.0 mi North 3.5 mph - N/A   Clear
10:15 PM 51.8 °F - 17.6 °F 26% 30.09 in 10.0 mi Calm Calm - N/A   Clear
10:35 PM 50.0 °F - 17.6 °F 28% 30.09 in 10.0 mi North 3.5 mph - N/A   Clear
10:55 PM 48.2 °F - 17.6 °F 30% 30.09 in 10.0 mi North 4.6 mph - N/A   Clear
11:15 PM 48.2 °F - 21.2 °F 34% 30.11 in 10.0 mi NNE 4.6 mph - N/A   Clear
11:35 PM 48.2 °F - 21.2 °F 34% 30.11 in 10.0 mi NNE 4.6 mph - N/A   Clear
11:55 PM 46.4 °F 45.2 °F 21.2 °F 37% 30.12 in 10.0 mi North 3.5 mph - N/A   Clear